Location: Hiekkapohja
(62.3333°N, 25.7833°E)
Time: 19:55:43
(UTC+00:00)

Cosmos 2112 Rocket - Pass Details

Date: 07 August 2020
Orbit: 757 x 786 km, 74.0° (Epoch: 21 September)

Event Time Altitude Azimuth Distance (km) Brightness Sun altitude
Rises 00:08:15 0° 324° (NW) 3,261 7.7 -8.6°
Reaches altitude 10° 00:10:39 10° 323° (NW) 2,325 6.9 -8.5°
Maximum altitude 00:15:55 72° 240° (WSW) 808 4.0 -8.2°
Drops below altitude 10° 00:21:06 10° 157° (SSE) 2,295 6.1 -7.9°
Sets 00:23:27 0° 155° (SSE) 3,214 6.9 -7.8°
